星链-11643 (STARLINK-11643)

导读

STARLINK-11643是美国太空探索技术公司星链互联网卫星星座的一员,于2025年3月13日发射入轨。星链星座旨在为全球提供覆盖偏远地区的高速低延迟互联网服务,该卫星延续星链设计,依托近地轨道部署,助力完善星座全球覆盖网络,推动全球互联网接入基础设施建设。

基本信息
目录编号:
63192
目录名称:
STARLINK-11643
国际标识:
2025-048K
轨道中心:
EARTH
卫星名称:
星链-11643
卫星全名:
星链-11643 (STARLINK-11643)
卫星状态:
在轨 (已飞行541 天)
发射日期:
2025-03-13 UTC
国别 :
美国 (US)
星等 :
--
轨道信息
数据来源 国际轨道数据
星历时间: 2026-09-04T21:34:52+0800
18小时前
查看轨道信息
半长轴: 6734.619km
偏心率: 0.0001456
轨道倾角: 43.000°
近地点辐角 284.494°
升交点赤经 321.696°
平近点角 75.577°
近地点: 355.501km
远地点: 357.463km
周期: 91.670分钟
每日圈数: 15.708448
详细信息
固有亮度:
5
最大亮度:
2.5
卫星平台:
Starlink V1.0
覆盖范围:
全球
运营商:
太空探索技术公司
运营商所在国:
美国
制造商(研发单位):
太空探索技术公司
制造商所在国:
美国
使用方式:
暂无
卫星简介
Starlink 计划是 SpaceX 推出的全球卫星互联网项目,通过发射低轨道卫星,为全球尤其是偏远地区提供高速、低延迟的互联网服务。自 2019 年起,Starlink 已部署数千颗卫星,旨在缩小全球数字鸿沟,推动互联网普及。该项目还为军事、航空等行业提供通信支持,带来广泛经济效益。
2D轨道图
3D轨道图
轨道高度分析图
轨道倾角分析图
轨道综合分析图
查看轨道综合分析图